Current Weather Conditions
Home Hang gliding Paragliding Powered Parachute Powered Paragliding Skydiving Ultralight Weather Aviation Shirts
WEATHER DATA:
Weather observations for the past three days for
University of Illinois - Willard
Imperial (Metric)
Date Time (cdt) Wind (mph) Vis. (mi.) Weather Sky Cond. Temperature (F) Relative Humidity Wind Chill (F) Heat Index (F) Pressure Precipitation (in)
Air Dwpt 6 hour altimeter (in) sea level (mb) 1 hr 3 hr 6 hr
Max. Min.
18 09:53 N 10 10.00 Partly Cloudy FEW024 SCT035 70 57.9 66% 30.19 1021.9
18 08:53 N 10 10.00 Fair CLR 70 60.1 71% 30.18 1021.7
18 07:53 N 5 10.00 Fair CLR 66.9 60.1 79% 30.17 1021.3
18 06:53 W 6 10.00 Fair CLR 61 59 66.9 57.9 93% 30.17 1021.0
18 05:53 NW 5 8.00 Fair CLR 57.9 55.9 93% 30.14 1020.3
18 04:53 NW 6 10.00 Fair CLR 59 55.9 90% 30.13 1019.8
18 03:53 N 6 10.00 Fair CLR 62.1 57 84% 30.11 1019.2
18 02:53 NE 8 10.00 Fair CLR 64 57 78% 30.1 1018.9
18 01:53 NE 10 10.00 Fair CLR 66 57 73% 30.1 1018.8
18 00:53 NE 8 10.00 Partly Cloudy FEW042 SCT050 66.9 59 78.1 64.9 76% 30.12 1019.3
17 23:53 NE 9 10.00 Partly Cloudy SCT032 68 60.1 76% 30.1 1018.7
17 22:53 N 7 10.00 Fair CLR 66.9 60.1 79% 30.09 1018.2
17 21:53 N 9 10.00 Fair CLR 69.1 59 70% 30.06 1017.5
17 20:53 N 10 10.00 Fair CLR 73 60.1 64% 30.04 1016.7
17 19:53 N 9 10.00 A Few Clouds FEW039 75 62.1 64% 77 30.02 1016.0
17 18:53 N 10 10.00 Fair CLR 78.1 61 82.9 78.1 56% 80 30 1015.4
17 17:53 NW 12 10.00 Fair CLR 80.1 62.1 54% 81 29.99 1014.9
17 16:53 NW 16 10.00 A Few Clouds FEW040 81 62.1 53% 82 29.98 1014.7
17 15:53 NW 15 10.00 Fair CLR 82 63 53% 83 29.98 1014.7
17 14:53 NW 12 G 20 10.00 A Few Clouds FEW036 82 66 58% 84 30 1015.3
17 13:53 NW 10 10.00 Mostly Cloudy SCT032 BKN048 81 66 61% 83 30 1015.4
17 12:53 NW 12 10.00 Partly Cloudy SCT030 82 66.9 82.9 73.9 60% 85 30 1015.2
17 11:53 NW 12 10.00 Fair CLR 82 66.9 60% 85 29.99 1015.0
17 10:53 N 8 10.00 Partly Cloudy SCT020 SCT028 82 70 67% 86 29.98 1014.4
17 09:53 N 8 10.00 Mostly Cloudy BKN011 77 70 79% 79 29.97 1014.2
17 08:53 N 10 10.00 A Few Clouds FEW009 77 71.1 82% 79 29.95 1013.8
17 07:53 NW 8 10.00 Fair CLR 73.9 70 88% 29.94 1013.3
17 06:53 NW 3 6.00 Fog/Mist SCT001 71.1 69.1 71.1 69.1 94% 29.93 1012.8
17 05:53 W 6 4.00 Fog/Mist BKN001 OVC110 69.1 68 96% 29.92 1012.5
17 04:53 NW 7 8.00 Mostly Cloudy BKN110 69.1 68 96% 29.91 1012.4
17 03:53 W 6 7.00 Fair CLR 69.1 68 96% 29.9 1011.8
17 02:53 W 6 10.00 Fair CLR 70 68 93% 29.88 1011.1
17 01:53 W 6 10.00 A Few Clouds FEW120 71.1 69.1 94% 29.89 1011.4
17 00:53 NW 6 10.00 Mostly Cloudy FEW025 BKN110 71.1 69.1 78.1 70 94% 29.9 1011.9
16 23:53 SW 5 10.00 Fair CLR 71.1 69.1 94% 29.91 1012.3
16 22:53 SW 6 10.00 Fair CLR 71.1 69.1 94% 29.93 1013.0
16 21:53 S 6 10.00 A Few Clouds FEW035 72 70 94% 29.92 1012.6
16 20:53 S 8 10.00 Overcast BKN025 OVC033 75 70 84% 75 29.91 1012.1
16 19:53 S 7 10.00 Mostly Cloudy BKN110 75.9 70 82% 77 29.88 1011.4
16 18:53 Calm 10.00 Fair CLR 78.1 70 79 75 76% 80 29.85 1010.2
16 17:53 NW 5 10.00 Fair CLR 79 68 69% 81 29.85 1010.2
16 16:53 NW 13 10.00 Fair CLR 77 69.1 77% 79 29.87 1010.8
16 15:53 W 20 G 36 10.00 Mostly Cloudy FEW014 BKN035 75.9 69.1 79% 77 29.87 1010.9
16 14:53 W 12 G 21 10.00 A Few Clouds FEW120 75.9 69.1 79% 77 29.88 1011.4
16 13:53 SW 15 G 25 10.00 Fair CLR 75 69.1 82% 75 29.89 1011.7
16 12:53 SW 13 10.00 Fair CLR 77 70 79 70 79% 79 29.89 1011.5
16 11:53 SW 16 G 28 10.00 A Few Clouds FEW041 79 72 79% 82 29.89 1011.4
16 10:53 SW 13 G 21 10.00 Mostly Cloudy BKN040 77 70 79% 79 29.87 1010.7
16 09:53 S 8 10.00 Overcast OVC032 73.9 70 88% 29.87 1010.8
16 08:53 S 13 G 21 10.00 Overcast SCT029 OVC038 73 69.1 87% 29.87 1010.9
16 07:53 S 8 10.00 Fair CLR 72 69.1 91% 29.85 1010.1
16 06:53 S 9 10.00 Fair CLR 70 68 72 69.1 93% 29.84 1009.6 0.15
16 05:53 SW 10 10.00 Fair CLR 70 68 93% 29.81 1008.9
16 04:53 S 10 G 20 10.00 Partly Cloudy FEW060 FEW080 SCT110 70 68 93% 29.82 1009.0
16 03:53 SW 9 10.00 Thunderstorm in Vicinity Light Rain FEW095 OVC120 70 68 93% 29.83 1009.3 0.03 0.15
16 02:53 S 9 G 17 10.00 Light Rain OVC100 69.1 68 96% 29.84 1009.9 0.05
16 01:53 S 14 G 23 10.00 Thunderstorm in Vicinity Light Rain BKN090 OVC110 70 68 93% 29.88 1011.2 0.07
16 00:53 S 13 G 20 2.50 Thunderstorm Heavy Rain Fog/Mist SCT046 OVC065 70 69.1 88 70 97% 29.87 1010.8 0.11 0.59
15 23:53 SE 5 10.00 Light Rain FEW050 BKN100 OVC120 70 69.1 97% 29.85 1010.2 0.02
15 22:53 NW 13 5.00 Thunderstorm Rain Fog/Mist BKN038 BKN060 OVC100 70 69.1 97% 29.89 1011.4 0.46
15 21:53 S 8 10.00 Partly Cloudy SCT100 82.9 77 82% 92 29.83 1009.5
15 20:53 S 9 10.00 Fair CLR 82.9 78.1 85% 93 29.83 1009.3
15 19:53 S 8 10.00 Fair CLR 84.9 78.1 80% 97 29.79 1007.9
15 18:53 S 13 G 20 10.00 Fair CLR 88 81 91 88 80% 106 29.77 1007.4
15 17:53 S 12 G 21 10.00 Fair CLR 89.1 79 72% 105 29.79 1008.1
15 16:53 S 13 G 21 10.00 Fair CLR 90 80.1 73% 108 29.81 1008.7
15 15:53 SW 10 G 20 10.00 A Few Clouds FEW020 89.1 80.1 75% 106 29.84 1009.8
15 14:53 S 7 10.00 A Few Clouds FEW021 90 81 75% 109 29.87 1010.8
15 13:53 SW 9 10.00 Partly Cloudy SCT018 89.1 80.1 75% 106 29.88 1011.1
15 12:53 Vrbl 6 G 16 10.00 Partly Cloudy SCT019 88 79 88 73 75% 103 29.89 1011.5
15 11:53 SW 13 G 18 10.00 A Few Clouds FEW016 87.1 78.1 75% 100 29.91 1012.1
15 10:53 SW 10 10.00 Fair CLR 84.9 77 77% 95 29.91 1012.1
Date Time (cdt) Wind (mph) Vis. (mi.) Weather Sky Cond. Air Dwpt Max. Min. Relative Humidity Wind Chill (F) Heat Index (F) altimeter (in) sea level (mb) 1 hr 3 hr 6 hr
6 hour
Temperature (F) Pressure Precipitation (in)
3 day Weather History for - KCMI
Weather observations for the past three days for
University of Illinois - Willard
Imperial (Metric)
Date Time (cdt) Wind (mph) Vis. (mi.) Weather Sky Cond. Temperature (F) Relative Humidity Wind Chill (F) Heat Index (F) Pressure Precipitation (in)
Air Dwpt 6 hour altimeter (in) sea level (mb) 1 hr 3 hr 6 hr
Max. Min.
18 09:53 N 10 10.00 Partly Cloudy FEW024 SCT035 70 57.9 66% 30.19 1021.9
18 08:53 N 10 10.00 Fair CLR 70 60.1 71% 30.18 1021.7
18 07:53 N 5 10.00 Fair CLR 66.9 60.1 79% 30.17 1021.3
18 06:53 W 6 10.00 Fair CLR 61 59 66.9 57.9 93% 30.17 1021.0
18 05:53 NW 5 8.00 Fair CLR 57.9 55.9 93% 30.14 1020.3
18 04:53 NW 6 10.00 Fair CLR 59 55.9 90% 30.13 1019.8
18 03:53 N 6 10.00 Fair CLR 62.1 57 84% 30.11 1019.2
18 02:53 NE 8 10.00 Fair CLR 64 57 78% 30.1 1018.9
18 01:53 NE 10 10.00 Fair CLR 66 57 73% 30.1 1018.8
18 00:53 NE 8 10.00 Partly Cloudy FEW042 SCT050 66.9 59 78.1 64.9 76% 30.12 1019.3
17 23:53 NE 9 10.00 Partly Cloudy SCT032 68 60.1 76% 30.1 1018.7
17 22:53 N 7 10.00 Fair CLR 66.9 60.1 79% 30.09 1018.2
17 21:53 N 9 10.00 Fair CLR 69.1 59 70% 30.06 1017.5
17 20:53 N 10 10.00 Fair CLR 73 60.1 64% 30.04 1016.7
17 19:53 N 9 10.00 A Few Clouds FEW039 75 62.1 64% 77 30.02 1016.0
17 18:53 N 10 10.00 Fair CLR 78.1 61 82.9 78.1 56% 80 30 1015.4
17 17:53 NW 12 10.00 Fair CLR 80.1 62.1 54% 81 29.99 1014.9
17 16:53 NW 16 10.00 A Few Clouds FEW040 81 62.1 53% 82 29.98 1014.7
17 15:53 NW 15 10.00 Fair CLR 82 63 53% 83 29.98 1014.7
17 14:53 NW 12 G 20 10.00 A Few Clouds FEW036 82 66 58% 84 30 1015.3
17 13:53 NW 10 10.00 Mostly Cloudy SCT032 BKN048 81 66 61% 83 30 1015.4
17 12:53 NW 12 10.00 Partly Cloudy SCT030 82 66.9 82.9 73.9 60% 85 30 1015.2
17 11:53 NW 12 10.00 Fair CLR 82 66.9 60% 85 29.99 1015.0
17 10:53 N 8 10.00 Partly Cloudy SCT020 SCT028 82 70 67% 86 29.98 1014.4
17 09:53 N 8 10.00 Mostly Cloudy BKN011 77 70 79% 79 29.97 1014.2
17 08:53 N 10 10.00 A Few Clouds FEW009 77 71.1 82% 79 29.95 1013.8
17 07:53 NW 8 10.00 Fair CLR 73.9 70 88% 29.94 1013.3
17 06:53 NW 3 6.00 Fog/Mist SCT001 71.1 69.1 71.1 69.1 94% 29.93 1012.8
17 05:53 W 6 4.00 Fog/Mist BKN001 OVC110 69.1 68 96% 29.92 1012.5
17 04:53 NW 7 8.00 Mostly Cloudy BKN110 69.1 68 96% 29.91 1012.4
17 03:53 W 6 7.00 Fair CLR 69.1 68 96% 29.9 1011.8
17 02:53 W 6 10.00 Fair CLR 70 68 93% 29.88 1011.1
17 01:53 W 6 10.00 A Few Clouds FEW120 71.1 69.1 94% 29.89 1011.4
17 00:53 NW 6 10.00 Mostly Cloudy FEW025 BKN110 71.1 69.1 78.1 70 94% 29.9 1011.9
16 23:53 SW 5 10.00 Fair CLR 71.1 69.1 94% 29.91 1012.3
16 22:53 SW 6 10.00 Fair CLR 71.1 69.1 94% 29.93 1013.0
16 21:53 S 6 10.00 A Few Clouds FEW035 72 70 94% 29.92 1012.6
16 20:53 S 8 10.00 Overcast BKN025 OVC033 75 70 84% 75 29.91 1012.1
16 19:53 S 7 10.00 Mostly Cloudy BKN110 75.9 70 82% 77 29.88 1011.4
16 18:53 Calm 10.00 Fair CLR 78.1 70 79 75 76% 80 29.85 1010.2
16 17:53 NW 5 10.00 Fair CLR 79 68 69% 81 29.85 1010.2
16 16:53 NW 13 10.00 Fair CLR 77 69.1 77% 79 29.87 1010.8
16 15:53 W 20 G 36 10.00 Mostly Cloudy FEW014 BKN035 75.9 69.1 79% 77 29.87 1010.9
16 14:53 W 12 G 21 10.00 A Few Clouds FEW120 75.9 69.1 79% 77 29.88 1011.4
16 13:53 SW 15 G 25 10.00 Fair CLR 75 69.1 82% 75 29.89 1011.7
16 12:53 SW 13 10.00 Fair CLR 77 70 79 70 79% 79 29.89 1011.5
16 11:53 SW 16 G 28 10.00 A Few Clouds FEW041 79 72 79% 82 29.89 1011.4
16 10:53 SW 13 G 21 10.00 Mostly Cloudy BKN040 77 70 79% 79 29.87 1010.7
16 09:53 S 8 10.00 Overcast OVC032 73.9 70 88% 29.87 1010.8
16 08:53 S 13 G 21 10.00 Overcast SCT029 OVC038 73 69.1 87% 29.87 1010.9
16 07:53 S 8 10.00 Fair CLR 72 69.1 91% 29.85 1010.1
16 06:53 S 9 10.00 Fair CLR 70 68 72 69.1 93% 29.84 1009.6 0.15
16 05:53 SW 10 10.00 Fair CLR 70 68 93% 29.81 1008.9
16 04:53 S 10 G 20 10.00 Partly Cloudy FEW060 FEW080 SCT110 70 68 93% 29.82 1009.0
16 03:53 SW 9 10.00 Thunderstorm in Vicinity Light Rain FEW095 OVC120 70 68 93% 29.83 1009.3 0.03 0.15
16 02:53 S 9 G 17 10.00 Light Rain OVC100 69.1 68 96% 29.84 1009.9 0.05
16 01:53 S 14 G 23 10.00 Thunderstorm in Vicinity Light Rain BKN090 OVC110 70 68 93% 29.88 1011.2 0.07
16 00:53 S 13 G 20 2.50 Thunderstorm Heavy Rain Fog/Mist SCT046 OVC065 70 69.1 88 70 97% 29.87 1010.8 0.11 0.59
15 23:53 SE 5 10.00 Light Rain FEW050 BKN100 OVC120 70 69.1 97% 29.85 1010.2 0.02
15 22:53 NW 13 5.00 Thunderstorm Rain Fog/Mist BKN038 BKN060 OVC100 70 69.1 97% 29.89 1011.4 0.46
15 21:53 S 8 10.00 Partly Cloudy SCT100 82.9 77 82% 92 29.83 1009.5
15 20:53 S 9 10.00 Fair CLR 82.9 78.1 85% 93 29.83 1009.3
15 19:53 S 8 10.00 Fair CLR 84.9 78.1 80% 97 29.79 1007.9
15 18:53 S 13 G 20 10.00 Fair CLR 88 81 91 88 80% 106 29.77 1007.4
15 17:53 S 12 G 21 10.00 Fair CLR 89.1 79 72% 105 29.79 1008.1
15 16:53 S 13 G 21 10.00 Fair CLR 90 80.1 73% 108 29.81 1008.7
15 15:53 SW 10 G 20 10.00 A Few Clouds FEW020 89.1 80.1 75% 106 29.84 1009.8
15 14:53 S 7 10.00 A Few Clouds FEW021 90 81 75% 109 29.87 1010.8
15 13:53 SW 9 10.00 Partly Cloudy SCT018 89.1 80.1 75% 106 29.88 1011.1
15 12:53 Vrbl 6 G 16 10.00 Partly Cloudy SCT019 88 79 88 73 75% 103 29.89 1011.5
15 11:53 SW 13 G 18 10.00 A Few Clouds FEW016 87.1 78.1 75% 100 29.91 1012.1
15 10:53 SW 10 10.00 Fair CLR 84.9 77 77% 95 29.91 1012.1
Date Time (cdt) Wind (mph) Vis. (mi.) Weather Sky Cond. Air Dwpt Max. Min. Relative Humidity Wind Chill (F) Heat Index (F) altimeter (in) sea level (mb) 1 hr 3 hr 6 hr
6 hour
Temperature (F) Pressure Precipitation (in)


Weather History V4.0 ©2002- Airsports Net